Flag for Canada Weather past 2 weeks in Happy Valley-Goose Bay, Newfoundland and Labrador, Canada

Now
34 °F

Passing clouds.


Feels Like: 27 °F
Forecast: 36 / 51 °F
Wind: 8 mph from West

Location: Goose

Current Time: May 29, 2015 at 6:11:55 AM

Latest Report: May 29, 2015 at 5:00 AM


Visibility: 15 mi

Pressure: 30.27 "Hg

Humidity: 51%

Dew point: 18 °F

Location of Happy Valley-Goose BayLocation

Historic Weather in Happy Valley-Goose Bay — Graph

°F

Happy Valley-Goose Bay temperature yesterday

Maximum temperature yesterday: 59 °F (at 9:00 AM)
Minimum temperature yesterday: 45 °F (at 11:00 PM)
Average temperature yesterday: 56 °F

Past Weeks' High & Low Weather Summary

 TemperatureHumidityPressure
High72 °F (May 26, 5:00 PM)100% (May 19, 12:00 PM)30.36 "Hg (May 19, 12:00 PM)
Low27 °F (May 14, 5:00 AM)20% (May 26, 6:00 PM)29.20 "Hg (May 21, 6:00 AM)
Average44 °F70%29.85 "Hg
* Reported May 14 4:00 AM — May 29 4:00 AM, Happy Valley-Goose Bay, Weather by CustomWeather, © 2015

Note: Actual official high and low records may vary slightly from our data, if they occured in-between our weather recording intervals... More about our weather records

Advertising

Happy Valley-Goose Bay weather history for previous 24 hours

 ConditionsComfort  
Time TempWeatherWind HumidityBarometerVisibility
4:00 AM
Fri, May 29
36 °FPassing clouds.7 mph56%30.24 "Hg15 mi
3:00 AM37 °FPassing clouds.13 mph56%30.21 "Hg15 mi
2:00 AM39 °FPassing clouds.12 mph61%30.16 "Hg15 mi
1:00 AM39 °FPassing clouds.10 mph61%30.12 "Hg15 mi
12:00 AM45 °FPassing clouds.6 mph46%30.09 "Hg15 mi
11:00 PM
Thu, May 28
45 °FPassing clouds.6 mph46%30.07 "Hg15 mi
10:00 PM48 °FPassing clouds.8 mph43%30.05 "Hg15 mi
9:00 PM52 °FScattered clouds.9 mph38%30.02 "Hg15 mi
8:00 PM54 °FPassing clouds.18 mph30%29.99 "Hg15 mi
7:00 PM55 °FPassing clouds.16 mph31%29.95 "Hg15 mi
6:00 PM57 °FPassing clouds.18 mph31%29.92 "Hg15 mi
5:00 PM57 °FPartly sunny.14 mph39%29.89 "Hg15 mi
4:00 PM59 °FPartly sunny.16 mph36%29.87 "Hg15 mi
3:00 PM59 °FScattered clouds.20 mph42%29.83 "Hg15 mi
2:00 PM57 °FBroken clouds.14 mph55%29.80 "Hg15 mi
1:00 PM57 °FBroken clouds.20 mph67%29.77 "Hg15 mi
12:00 PM59 °FPartly sunny.21 mph72%29.72 "Hg15 mi
11:00 AM59 °FSprinkles. Partly sunny.10 mph82%29.68 "Hg15 mi
10:00 AM59 °FSprinkles. Mostly cloudy.8 mph88%29.64 "Hg15 mi
9:49 AM59 °FSprinkles. Mostly cloudy.10 mph94%29.63 "Hg12 mi
9:00 AM59 °FCloudy.10 mph82%29.61 "Hg15 mi
8:00 AM57 °FMostly cloudy.9 mph82%29.59 "Hg15 mi
7:00 AM55 °FMostly cloudy.9 mph88%29.58 "Hg15 mi
6:45 AM55 °FMostly cloudy.10 mph88%29.58 "Hg15 mi
6:00 AM55 °FMostly cloudy.9 mph88%29.59 "Hg15 mi
Weather by CustomWeather, © 2015

See weather overviewHow to use our weather pages